Wind_Speed
4 3 3 1 4 5 3 3 6 6 4 1 5 10 12 13 6 3 5 2 7 12 8 10 9 9 11 12 14 14 13 13 13 13 12 12 11 10 8 7 5 4 3 2 2 2 2 2 1
2 3 2 2 5 4 5 6 7 10 9 8 5 3 3 4 2 4 2 1 8 10 9 10 9 10 11 12 12 13 12 11 11 11 10 9 8 8 7 5 4 3 2 2 2 2 2 1 1
2 2 3 4 3 1 3 1 2 10 16 6 3 3 3 3 3 5 5 4 4 11 10 9 9 8 9 10 11 12 11 11 9 9 8 6 5 3 3 3 3 3 3 3 3 3 3 3 3
3 4 4 4 2 3 3 4 17 14 4 4 5 4 2 7 3 2 5 7 8 9 10 11 12 10 10 10 10 10 10 9 8 7 6 4 3 1 1 2 2 3 4 5 5 6 6 6 6
3 3 4 3 4 4 5 2 4 5 5 4 3 4 3 2 2 4 10 12 12 11 11 10 12 12 11 11 10 10 9 9 7 6 5 3 2 2 3 4 5 5 6 8 8 9 9 9 9
4 3 5 2 6 2 2 6 3 5 3 4 4 3 1 5 6 6 8 10 9 10 10 8 8 10 10 10 10 9 9 9 8 7 6 5 4 3 3 4 5 7 8 10 11 11 9 9 9
6 4 4 4 4 5 5 5 4 4 3 3 2 3 3 7 5 5 10 8 8 6 5 6 5 5 7 9 10 8 7 7 6 5 5 4 3 1 3 5 7 8 9 10 12 14 13 12 11
5 4 4 3 3 3 0 4 4 5 3 1 2 3 4 2 5 7 9 8 6 4 4 4 6 8 8 7 8 8 6 5 4 3 3 3 2 2 3 5 8 10 11 11 11 12 14 15 16
3 5 3 5 7 4 3 5 2 3 5 2 4 2 2 14 11 12 10 11 11 11 8 6 6 7 7 6 7 6 4 3 3 2 4 4 6 6 7 7 8 10 10 12 13 12 12 15 18
5 4 10 6 7 3 1 4 8 4 2 4 5 10 16 17 16 19 18 16 17 18 15 9 6 7 5 5 5 5 4 2 2 3 7 9 9 9 9 10 9 8 9 8 8 8 9 9 12
4 6 5 4 7 7 4 4 4 9 2 1 6 10 13 17 20 17 16 12 15 16 16 15 9 4 3 2 2 3 5 3 5 9 11 10 13 12 14 16 11 9 9 10 7 5 3 4 14
1 6 5 3 7 6 10 7 5 5 4 10 11 12 15 16 14 13 14 16 17 18 16 12 12 8 6 4 3 4 8 9 10 10 10 9 10 12 11 13 10 14 18 14 9 6 1 3 9
4 4 4 6 8 7 12 7 8 11 13 13 16 17 13 16 17 17 13 13 16 18 17 14 11 9 7 5 5 6 8 9 11 12 15 15 15 16 17 10 12 14 19 17 16 15 10 6 7
5 5 3 6 6 5 16 6 6 5 10 13 15 14 13 17 13 16 18 16 17 16 15 13 12 10 7 8 8 11 12 12 12 13 16 15 16 16 16 15 14 17 17 18 15 16 12 9 6
0 5 7 4 3 6 7 8 7 9 12 13 14 12 13 15 17 17 16 16 14 15 13 11 11 13 13 13 14 13 15 14 15 15 15 16 17 16 14 15 16 15 17 16 14 14 18 18 18
4 5 5 5 3 2 4 4 9 8 12 11 12 10 11 11 17 19 18 18 17 17 17 15 12 11 13 15 15 13 15 17 19 17 14 16 16 17 15 15 16 14 14 16 15 13 14 12 16
6 3 3 1 2 2 4 6 11 9 12 10 7 8 9 8 15 17 19 20 21 21 20 19 17 17 18 18 17 15 15 16 19 17 17 17 16 16 16 16 16 16 16 15 17 15 15 15 15
2 1 3 3 3 7 5 9 12 9 12 9 7 7 7 7 7 15 18 20 23 24 25 25 22 17 12 11 11 12 14 15 16 18 19 19 18 19 18 17 18 18 18 18 18 17 14 11 17
2 3 6 2 2 7 7 14 11 8 10 8 7 6 6 6 11 16 18 20 21 23 25 25 25 23 20 20 17 14 17 17 18 19 19 19 19 19 19 19 20 19 19 19 19 21 18 13 17
3 7 5 6 6 8 12 10 7 4 4 5 6 6 7 6 6 12 16 17 18 19 21 22 23 23 23 21 17 11 12 11 16 18 18 18 19 19 20 20 19 19 19 19 19 16 16 12 14
2 5 7 6 8 11 12 5 3 1 3 5 4 3 5 5 7 7 12 12 13 18 17 19 20 22 22 20 17 15 12 14 19 21 21 19 18 18 18 18 18 19 19 19 16 13 12 10 14
3 5 9 14 4 5 2 4 4 4 4 5 5 5 5 6 5 8 10 10 10 13 15 17 19 21 21 19 19 19 17 16 15 18 18 17 17 16 16 16 16 17 18 18 17 13 12 10 9
4 7 7 4 4 6 1 4 4 5 7 8 7 7 6 7 7 6 9 11 8 9 12 13 15 17 17 17 16 15 14 13 14 15 15 16 16 15 15 15 15 17 18 18 18 16 14 12 11
8 6 7 5 3 2 2 5 4 6 9 6 6 7 8 7 7 11 12 11 9 7 9 10 12 13 14 13 11 12 12 12 13 16 17 18 17 16 16 16 15 16 16 18 17 15 14 16 15
6 6 3 4 4 5 1 4 6 6 4 10 15 11 8 8 9 8 11 10 7 4 5 7 11 15 15 15 13 12 12 13 14 15 17 18 18 16 16 16 16 16 17 17 16 17 17 16 15
3 6 5 4 2 4 2 4 4 3 4 6 10 9 8 8 7 7 12 9 6 5 5 7 13 16 16 14 15 12 12 15 15 14 15 14 15 15 14 13 13 14 16 17 16 17 18 17 19
3 4 4 6 3 3 3 4 3 3 1 9 11 9 9 9 8 8 12 9 6 3 5 8 13 14 14 13 13 13 14 14 16 15 15 15 15 16 14 11 11 13 14 15 17 18 18 17 18
4 5 4 3 1 3 4 4 4 5 7 6 10 13 8 7 8 8 11 9 5 4 6 9 13 13 12 11 13 12 13 13 13 15 18 17 17 16 18 16 14 15 15 16 17 20 19 19 19
2 2 7 5 4 5 2 5 6 8 12 16 13 11 12 11 10 8 12 9 5 4 5 9 11 12 12 12 13 13 15 14 14 14 17 18 18 19 18 18 17 15 16 17 18 19 18 17 14
2 4 5 5 4 1 3 6 2 5 11 13 12 10 10 11 10 11 13 9 6 5 5 7 8 10 10 12 13 15 15 15 15 13 17 18 19 18 19 18 17 16 14 15 16 18 20 19 18
Wind_Direction
21 79 107 345 40 59 305 103 125 159 112 196 248 139 176 177 199 243 18 62 155 138 126 127 134 132 119 106 100 99 103 109 111 110 109 112 114 115 114 113 111 103 91 84 76 67 66 81 126
348 111 82 53 73 34 298 129 195 192 142 116 68 29 60 118 161 320 31 231 157 123 125 125 141 139 126 119 114 109 107 109 115 115 113 111 108 105 103 97 89 71 60 62 63 55 50 26 277
56 103 75 84 99 7 285 84 134 119 155 161 127 351 355 67 57 14 349 168 143 123 120 128 133 127 121 116 109 105 102 106 113 119 121 122 121 107 84 64 43 30 13 1 355 352 341 325 301
129 26 31 69 337 282 325 15 129 136 167 46 111 68 65 34 38 7 170 166 148 126 126 136 138 137 130 119 113 107 100 93 91 89 85 77 62 44 331 313 314 313 311 307 311 316 314 309 299
68 60 54 22 297 296 4 64 131 144 155 167 172 129 51 49 351 190 182 173 159 136 128 138 136 140 140 135 131 126 121 114 105 96 89 75 46 360 327 311 302 297 298 300 305 312 314 310 305
47 99 63 352 304 326 115 75 45 62 95 127 87 87 276 284 256 205 181 164 156 134 141 147 132 135 131 124 119 121 117 112 113 112 102 80 48 11 335 312 296 292 292 295 299 299 296 293 294
119 85 160 152 288 348 133 105 77 24 46 32 72 89 280 280 265 146 156 154 130 137 167 153 113 97 94 101 112 110 105 108 111 110 102 96 100 75 326 309 301 299 296 299 304 304 301 296 293
105 89 114 202 188 309 29 94 110 94 29 52 83 164 220 259 74 130 140 130 112 58 27 51 86 85 88 96 94 97 105 105 98 105 98 82 33 303 297 304 312 312 302 295 296 301 304 304 300
118 70 180 216 152 199 267 119 45 28 96 13 343 165 59 83 89 94 81 73 64 54 59 65 87 97 100 106 99 90 79 71 74 44 15 353 331 315 281 274 273 286 288 291 292 294 303 306 307
92 128 214 202 171 172 243 107 133 101 63 41 72 66 75 84 85 63 47 46 51 50 54 72 97 89 97 113 114 87 61 46 34 323 316 319 313 322 328 317 311 303 286 288 285 280 285 297 322
173 190 209 224 183 183 129 97 97 117 47 291 145 109 81 77 63 60 50 42 40 47 62 56 65 88 83 88 56 62 55 31 334 329 329 330 342 337 342 347 349 335 318 302 296 298 327 338 352
129 231 200 328 177 144 157 119 71 53 97 98 70 73 80 70 61 65 61 49 43 52 52 53 63 76 77 78 78 1 349 353 351 358 356 6 9 4 6 20 43 32 14 355 340 332 306 345 3
187 259 141 260 108 88 88 78 102 81 73 78 72 64 60 63 56 57 68 65 63 64 64 69 80 84 75 58 24 14 31 43 43 43 41 41 29 25 30 24 4 354 346 340 338 329 311 310 358
205 350 110 43 76 90 108 100 71 75 87 74 68 59 63 66 60 51 53 61 60 65 67 61 61 63 65 70 59 74 64 52 43 38 34 33 23 15 6 5 349 347 346 333 318 310 313 295 292
146 78 45 5 29 117 95 32 90 111 91 80 73 69 60 57 59 53 55 59 60 62 69 70 71 79 75 81 78 73 62 57 57 44 36 32 23 20 17 16 4 356 344 336 321 290 281 277 279
54 72 106 262 221 179 69 162 141 114 95 81 75 71 63 51 58 61 65 67 65 66 66 76 81 85 86 81 84 73 57 50 47 43 31 30 28 26 22 18 14 5 356 355 354 339 312 305 276
10 170 118 166 201 90 78 132 154 117 103 93 80 80 77 59 52 66 71 71 69 67 66 70 78 82 77 73 70 64 51 38 31 24 20 16 15 13 12 8 3 359 357 356 356 350 346 338 321
214 8 83 99 66 39 66 116 121 108 104 107 96 82 81 74 64 74 76 76 75 74 72 69 68 67 66 65 58 45 39 28 17 11 8 2 360 357 355 353 350 346 343 343 344 344 339 336 331
140 101 94 42 331 70 97 133 119 115 106 113 115 115 99 94 90 82 80 77 74 67 66 62 61 55 51 44 33 18 15 7 8 8 4 2 1 0 360 359 357 353 350 345 340 337 338 343 339
173 120 117 49 91 87 127 105 94 100 130 135 147 146 140 110 77 80 79 80 77 73 67 60 55 48 44 38 33 24 11 4 13 13 13 11 9 8 8 6 7 5 1 359 355 352 342 330 344
94 157 166 138 100 67 123 102 149 116 102 128 135 108 80 129 129 105 85 83 80 74 68 58 50 45 41 36 32 32 28 16 12 13 13 14 11 10 9 10 11 12 11 6 359 357 358 338 327
119 122 132 145 122 167 204 205 229 182 174 186 174 180 184 175 142 131 128 100 82 78 65 51 41 38 35 31 30 32 30 20 8 2 4 9 14 13 12 10 9 10 10 7 1 355 350 341 327
160 131 139 132 103 108 159 96 266 141 222 205 197 200 196 190 161 157 138 123 108 87 69 55 44 41 34 27 26 29 27 17 9 8 8 10 11 14 12 13 12 15 13 13 14 12 9 360 334
137 87 57 58 88 52 137 138 253 194 216 185 190 186 195 184 167 148 142 136 122 106 77 61 56 52 38 30 27 28 19 8 5 3 1 2 5 9 12 12 12 13 18 15 15 16 21 19 12
74 59 355 349 11 217 74 105 245 228 223 190 187 188 190 163 154 153 151 148 152 116 67 49 49 45 28 23 21 19 16 8 1 359 1 1 2 4 8 10 13 15 17 18 23 33 35 28 25
57 134 148 222 214 269 304 225 259 270 275 191 175 168 162 144 146 149 155 152 149 105 66 50 42 33 24 27 22 21 17 10 8 4 359 1 3 3 360 3 9 14 13 22 31 36 35 32 35
181 67 152 105 23 52 280 274 280 12 12 168 156 155 168 155 152 147 155 158 144 104 64 49 37 28 22 18 16 19 17 14 15 17 20 21 20 17 13 12 13 16 23 35 35 34 32 33 34
123 148 70 18 161 272 296 282 252 217 205 177 176 176 154 135 136 142 154 160 141 108 73 47 36 24 13 16 18 18 16 27 33 36 31 38 40 40 38 39 42 45 46 42 52 53 47 45 43
54 65 52 110 123 175 240 261 217 212 191 191 188 177 164 153 152 153 162 160 141 107 82 50 37 29 27 21 22 39 47 50 39 46 44 43 41 37 37 43 45 48 58 57 51 43 34 33 32
124 147 132 120 227 124 148 273 189 244 201 185 177 170 142 149 155 156 160 156 145 115 98 58 39 30 24 26 46 48 49 43 48 46 36 36 33 37 41 44 49 53 53 48 42 36 33 36 37
Height
778 778 779 781 803 811 819 819 801 809 808 796 785 780 794 793 810 824 801 800 803 797 801 802 804 806 805 806 805 805 807 809 810 812 815 816 816 817 818 818 819 819 820 820 819 819 819 819 820
778 779 780 788 817 833 824 810 805 798 798 795 792 791 797 806 800 803 804 805 803 802 803 805 805 806 806 805 806 806 808 810 812 813 815 817 818 818 818 819 819 820 820 820 819 819 819 819 819
778 779 787 808 830 826 821 801 794 797 796 795 798 795 797 804 803 805 806 806 806 803 804 805 808 809 809 808 808 809 811 812 813 814 815 817 818 819 820 819 819 819 820 820 820 819 819 819 819
778 781 791 813 815 805 801 803 796 799 798 795 796 806 801 804 806 807 804 805 805 805 806 806 806 809 810 810 810 811 813 814 816 817 818 819 819 819 819 819 818 818 819 819 819 818 818 818 818
779 790 819 822 818 806 800 797 798 803 797 797 796 809 808 805 806 805 804 805 805 807 807 809 807 808 809 808 809 809 811 813 815 816 816 817 818 819 818 818 818 817 817 818 818 817 818 817 817
789 797 829 833 819 805 796 793 793 802 802 802 804 808 811 805 804 805 807 808 810 809 811 813 813 812 812 811 811 813 813 813 813 814 814 815 817 818 817 816 816 816 815 815 816 815 814 814 813
792 809 828 823 816 806 799 790 799 803 805 806 801 813 810 803 804 808 810 813 814 815 816 815 816 818 816 815 814 816 816 815 815 815 814 813 813 813 814 814 814 814 814 814 814 814 813 812 810
791 806 819 818 819 807 792 795 798 802 809 803 803 816 813 804 810 812 814 816 817 820 819 819 819 819 819 819 818 817 817 816 816 816 814 813 812 813 811 810 812 813 812 812 811 811 811 811 809
785 821 832 812 818 804 790 799 801 801 807 807 805 804 806 811 814 816 818 820 821 820 820 821 821 820 820 820 820 820 819 818 817 818 817 816 815 813 810 808 806 808 809 810 809 808 807 808 808
799 824 816 798 798 796 791 792 800 807 812 814 810 808 813 815 818 820 823 824 823 822 822 822 823 822 822 822 822 821 820 819 818 818 816 815 814 814 812 812 807 805 806 807 805 804 804 804 804
798 809 798 790 788 786 789 796 795 808 818 813 815 815 818 818 822 824 826 827 826 825 823 824 824 823 824 825 825 823 821 819 819 817 816 814 814 813 810 808 807 808 806 806 804 803 800 801 800
793 788 785 782 780 786 792 792 806 806 814 812 817 821 823 826 829 830 830 830 828 826 825 825 824 825 826 826 825 825 822 820 819 818 817 814 812 810 807 809 809 808 806 806 804 801 797 795 796
790 782 782 780 783 786 788 802 807 816 817 819 823 825 832 836 838 836 836 836 835 833 832 830 829 827 827 827 826 825 823 821 819 818 817 814 812 810 809 809 808 807 805 804 801 799 797 794 793
781 783 785 786 787 788 796 808 805 823 822 825 828 834 837 838 839 840 838 837 835 835 833 832 830 829 828 828 827 824 822 821 820 819 817 814 812 811 810 808 807 807 804 802 798 798 796 795 794
777 795 793 793 793 798 791 818 824 823 824 831 834 837 841 846 844 845 844 842 840 837 835 834 833 832 831 829 828 826 825 823 821 820 819 817 816 814 812 810 810 807 806 803 799 796 796 795 795
786 795 814 798 793 793 794 835 827 826 828 835 838 840 842 845 846 848 848 847 844 840 837 835 834 833 832 830 829 830 827 825 823 821 821 819 818 817 815 813 812 810 807 804 801 798 795 793 791
804 811 806 806 797 799 804 831 826 829 832 840 843 845 847 851 851 851 851 850 848 846 842 838 836 835 834 833 831 830 828 827 826 824 822 821 820 818 816 814 812 810 807 805 803 799 796 792 789
806 804 809 808 803 810 819 826 827 832 836 844 848 852 854 854 854 855 853 854 852 850 846 844 841 840 838 835 833 833 831 829 828 826 823 821 819 818 815 814 812 809 807 804 802 800 796 793 789
791 799 816 812 805 819 826 827 832 837 841 846 851 853 854 856 855 855 855 854 853 852 848 847 844 843 839 836 834 832 831 829 828 827 825 822 821 818 815 813 811 809 806 803 800 797 795 792 790
793 806 818 817 813 816 828 837 837 838 841 843 848 854 855 854 855 857 857 856 855 853 850 850 847 844 840 838 837 836 834 833 831 829 827 825 821 818 816 814 812 810 806 803 800 798 796 794 792
787 799 810 819 818 820 826 837 838 838 839 842 845 846 848 852 855 859 860 861 859 855 852 850 848 845 842 840 839 837 834 834 831 829 827 825 823 820 817 815 813 810 807 804 802 800 799 796 793
792 788 798 810 819 840 820 853 842 840 843 842 843 846 851 852 855 858 858 859 861 857 853 851 849 846 843 842 839 836 835 835 833 831 829 826 824 822 819 817 814 812 809 806 803 800 798 796 794
787 786 798 804 817 826 831 845 845 843 846 844 845 847 850 852 854 855 858 860 861 859 855 854 852 848 847 844 842 839 838 838 835 833 831 828 825 823 820 818 815 813 809 806 803 800 798 795 793
781 792 808 821 829 840 828 838 844 843 829 839 840 843 846 850 854 856 859 861 861 861 859 857 854 851 849 847 844 842 841 839 837 834 831 828 825 822 820 817 815 812 810 807 804 801 798 796 793
789 811 842 838 847 846 829 839 833 825 822 824 831 837 842 846 851 856 858 861 862 861 860 859 854 851 849 847 844 842 841 839 837 834 831 828 825 822 820 817 815 812 810 807 804 801 798 796 794
800 807 842 841 854 845 829 838 829 823 821 820 825 833 839 847 851 856 858 860 862 861 860 858 853 851 850 849 846 844 841 839 837 834 832 829 826 823 821 818 816 813 811 807 805 802 800 798 796
797 817 812 841 848 851 847 833 825 825 825 823 829 834 840 847 852 855 858 860 861 861 860 858 855 854 853 851 848 845 843 840 838 836 833 830 827 824 821 819 817 814 812 809 807 805 803 801 798
785 802 823 841 840 843 848 840 833 830 830 830 831 832 841 848 853 856 859 861 862 862 860 858 856 855 854 853 850 847 844 843 841 838 835 832 830 826 823 820 818 816 815 813 811 809 807 805 802
801 811 829 836 847 853 854 843 817 816 819 822 825 830 837 845 851 855 858 861 862 861 861 859 858 857 856 854 851 848 846 845 842 841 838 835 832 829 826 823 821 819 818 816 814 812 810 808 805
790 803 818 844 837 852 855 846 807 812 811 813 821 826 836 843 849 854 857 860 861 861 861 860 859 858 857 854 852 850 848 846 844 843 841 838 835 832 829 827 825 823 821 819 817 814 812 809 806